Iron Mountain, MI

1:45 AM CST on December 16, 2017 (GMT -0600)
Ford

Weather History for KIMT - September, 2011

Change the Weather History Date:

Wednesday, September 21, 2011

  Actual Average Record
Temperature  
Mean Temperature 55 °F -  
Max Temperature 60 °F 63 °F 87 °F (1941)
Min Temperature 50 °F 42 °F 22 °F (1956)
Degree Days  
Heating Degree Days 10    
Growing Degree Days 5 (Base 50)    
Moisture  
Dew Point 50 °F    
Average Humidity 83    
Maximum Humidity 96    
Minimum Humidity 63    
Precipitation  
Precipitation 0.06 in - - ()
Sea Level Pressure  
Sea Level Pressure 29.76 in    
Wind  
Wind Speed 8 mph (SSW)    
Max Wind Speed 14 mph    
Max Gust Speed 23 mph    
Visibility 8 miles    
Events Rain    
Averages and records for this station are not official NWS values.
T = Trace of Precipitation, MM = Missing Value Source: NWS Daily Summary

Daily Weather History Graph

Daily Weather History Graph

Search for Another Location

Airport or City:

Trip Planner

Search our weather history database for the weather conditions in past years. The results will help you decide how hot, cold, wet, or windy it might be!

Date:

Astronomy

Sep. 21, 2011 Rise Set
Actual Time 6:37 AM CDT 6:52 PM CDT
Civil Twilight 6:08 AM CDT 7:22 PM CDT
Nautical Twilight 5:32 AM CDT 7:57 PM CDT
Astronomical Twilight 4:56 AM CDT 8:33 PM CDT
Moon No Moon Rise 3:19 PM CDT (9/21)
Length of Visible Light 13h 14m
Length of Day
12h 14m
Last Quarter, 38% of the Moon is Illuminated
Sep 21
Last Quarter
Sep 27
New
Oct 3
First Quarter
Oct 11
Full
Oct 19
Last Quarter

Hourly Weather History & Observations

Time (CDT) Temp. Dew Point Humidity Pressure Visibility Wind Dir Wind Speed Gust Speed Precip Events Conditions
12:54 AM 60.1 °F 55.0 °F 83% 29.77 in 9.0 mi SSE 8.1 mph - N/A   Clear
1:54 AM 59.0 °F 55.0 °F 87% 29.75 in 10.0 mi SSE 8.1 mph - N/A   Clear
2:54 AM 59.0 °F 54.0 °F 83% 29.74 in 10.0 mi South 6.9 mph - N/A   Clear
3:54 AM 57.9 °F 53.1 °F 84% 29.73 in 10.0 mi SSW 5.8 mph - N/A   Clear
4:54 AM 55.0 °F 46.9 °F 74% 29.73 in 10.0 mi South 6.9 mph - N/A   Clear
5:54 AM 54.0 °F 45.0 °F 72% 29.73 in 10.0 mi SSW 6.9 mph - N/A   Clear
6:54 AM 50.0 °F 44.1 °F 80% 29.74 in 10.0 mi SSE 3.5 mph - N/A   Clear
7:54 AM 53.1 °F 45.0 °F 74% 29.74 in 10.0 mi South 8.1 mph - N/A   Clear
8:54 AM 55.9 °F 45.0 °F 67% 29.73 in 10.0 mi SSW 8.1 mph - N/A   Clear
9:54 AM 57.0 °F 46.0 °F 67% 29.73 in 10.0 mi SSW 10.4 mph 16.1 mph N/A   Overcast
10:26 AM 59.0 °F 46.4 °F 63% 29.72 in 10.0 mi SW 13.8 mph 20.7 mph N/A   Overcast
10:54 AM 57.0 °F 46.0 °F 67% 29.73 in 10.0 mi SSW 11.5 mph - N/A   Overcast
11:54 AM 55.9 °F 46.9 °F 72% 29.73 in 10.0 mi South 10.4 mph 20.7 mph N/A   Overcast
12:35 PM 55.4 °F 50.0 °F 82% 29.72 in 9.0 mi South 8.1 mph - 0.00 in   Overcast
12:54 PM 55.0 °F 48.9 °F 80% 29.73 in 9.0 mi South 9.2 mph - 0.00 in   Overcast
1:17 PM 55.4 °F 51.8 °F 88% 29.72 in 5.0 mi South 10.4 mph - 0.00 in Rain Light Rain
1:24 PM 55.4 °F 50.0 °F 82% 29.71 in 7.0 mi South 10.4 mph - 0.00 in Rain Light Rain
1:45 PM 55.4 °F 50.0 °F 82% 29.71 in 10.0 mi South 11.5 mph 20.7 mph 0.00 in   Overcast
1:54 PM 57.0 °F 50.0 °F 77% 29.72 in 10.0 mi South 11.5 mph - 0.00 in   Overcast
2:49 PM 57.2 °F 51.8 °F 82% 29.71 in 4.0 mi South 12.7 mph 19.6 mph 0.01 in Rain Light Rain
3:03 PM 55.4 °F 51.8 °F 88% 29.71 in 4.0 mi South 12.7 mph - 0.00 in Rain Light Rain
3:54 PM 57.0 °F 52.0 °F 83% 29.72 in 5.0 mi SSW 10.4 mph - 0.01 in Rain Light Rain
4:47 PM 55.4 °F 51.8 °F 88% 29.73 in 2.0 mi SW 10.4 mph 20.7 mph 0.01 in Rain Light Rain
4:54 PM 55.0 °F 52.0 °F 89% 29.75 in 4.0 mi SW 9.2 mph 18.4 mph 0.01 in Rain Light Rain
5:54 PM 55.0 °F 52.0 °F 89% 29.76 in 10.0 mi SSW 6.9 mph - 0.00 in   Overcast
6:20 PM 55.4 °F 51.8 °F 88% 29.75 in 1.8 mi Variable 3.5 mph - 0.01 in Rain Light Rain
6:40 PM 53.6 °F 51.8 °F 94% 29.76 in 3.0 mi SW 8.1 mph - 0.03 in Rain Light Rain
6:48 PM 53.6 °F 51.8 °F 94% 29.77 in 10.0 mi NW 6.9 mph - 0.03 in Rain Light Rain
6:49 PM 54.0 °F 52.0 °F 93% 29.78 in 10.0 mi WNW 5.8 mph - 0.03 in   Overcast
7:54 PM 53.1 °F 51.1 °F 93% 29.80 in 10.0 mi SW 4.6 mph - N/A   Scattered Clouds
8:54 PM 53.1 °F 51.1 °F 93% 29.83 in 10.0 mi SW 4.6 mph - N/A   Overcast
9:54 PM 53.1 °F 52.0 °F 96% 29.84 in 10.0 mi SW 3.5 mph - 0.00 in   Overcast
10:54 PM 53.1 °F 50.0 °F 89% 29.86 in 10.0 mi WNW 10.4 mph 18.4 mph N/A   Overcast
11:02 PM 51.8 °F 48.2 °F 88% 29.85 in 10.0 mi WNW 12.7 mph 23.0 mph 0.01 in   Overcast
11:43 PM 50.0 °F 46.4 °F 87% 29.87 in 10.0 mi WNW 12.7 mph - 0.01 in   Overcast
11:54 PM 50.0 °F 46.0 °F 86% 29.89 in 10.0 mi WNW 8.1 mph - 0.01 in   Overcast